Location: Artiguedieu
(43.5000°N, 0.5454°E)
Time: 07:56:21
(UTC+00:00)

Cosmos 1125 Rocket - Pass Details

Date: 06 December 2020
Orbit: 757 x 780 km, 74.0° (Epoch: 19 January)

Event Time Altitude Azimuth Distance (km) Brightness Sun altitude
Rises 06:05:43 0° 217° (SW) 3,211 6.5 -12.4°
Reaches altitude 10° 06:08:12 10° 224° (SW) 2,287 5.7 -12.0°
Maximum altitude 06:13:08 43° 296° (WNW) 1,053 3.8 -11.2°
Drops below altitude 10° 06:18:05 10° 8° (N) 2,295 5.8 -10.3°
Sets 06:20:34 0° 15° (NNE) 3,224 6.7 -9.9°
